Year,Month,Day,Hour,Minute,Value (Times are PST for temperature in C)
2009,02,24,08,46,4.60
2009,02,24,08,47,4.60
2009,02,24,08,48,4.70
2009,02,24,08,49,4.70
2009,02,24,08,50,4.70
2009,02,24,08,51,4.70
2009,02,24,08,52,4.80
2009,02,24,08,53,4.80
2009,02,24,08,54,4.80
2009,02,24,08,55,4.80
2009,02,24,08,56,4.80
2009,02,24,08,57,4.90
2009,02,24,08,58,4.90
2009,02,24,08,59,4.90
2009,02,24,09,00,4.80
2009,02,24,09,01,4.80
2009,02,24,09,02,4.80
2009,02,24,09,03,4.80
2009,02,24,09,04,4.80
2009,02,24,09,05,4.80
2009,02,24,09,06,4.80
2009,02,24,09,07,4.80
2009,02,24,09,11,4.90
2009,02,24,09,12,5.00
2009,02,24,09,13,5.00
2009,02,24,09,14,5.00
2009,02,24,09,15,5.00
2009,02,24,09,16,5.00
2009,02,24,09,17,5.00
2009,02,24,09,18,5.00
2009,02,24,09,19,5.00
2009,02,24,09,20,5.00
2009,02,24,09,21,5.00
2009,02,24,09,22,5.10
2009,02,24,09,23,5.10
2009,02,24,09,24,5.10
2009,02,24,09,25,5.10
2009,02,24,09,26,5.20
2009,02,24,09,27,5.20
2009,02,24,09,28,5.20
2009,02,24,09,29,5.30
2009,02,24,09,30,5.30
2009,02,24,09,31,5.40
2009,02,24,09,32,5.40
2009,02,24,09,33,5.50
2009,02,24,09,34,5.50
2009,02,24,09,35,5.60
2009,02,24,09,36,5.60
2009,02,24,09,37,5.70
2009,02,24,09,38,5.70
2009,02,24,09,39,5.70
2009,02,24,09,40,5.80
2009,02,24,09,41,5.80
2009,02,24,09,42,5.80
2009,02,24,09,43,5.80
2009,02,24,09,44,5.80
2009,02,24,09,45,5.90
2009,02,24,09,46,5.90
2009,02,24,09,47,5.90
2009,02,24,09,48,6.00
2009,02,24,09,49,6.00
2009,02,24,09,50,5.90
2009,02,24,09,51,5.90
2009,02,24,09,52,5.90
2009,02,24,09,53,6.00
2009,02,24,09,54,6.10
2009,02,24,09,55,6.10
2009,02,24,09,56,6.20
2009,02,24,09,57,6.20
2009,02,24,09,58,6.20
2009,02,24,09,59,6.10
2009,02,24,10,00,6.10
2009,02,24,10,01,6.10
2009,02,24,10,02,6.20
2009,02,24,10,03,6.30
2009,02,24,10,04,6.30
2009,02,24,10,05,6.40
2009,02,24,10,06,6.40
2009,02,24,10,07,6.40
2009,02,24,10,08,6.40
2009,02,24,10,09,6.50
2009,02,24,10,10,6.50
2009,02,24,10,11,6.60
2009,02,24,10,12,6.70
2009,02,24,10,13,6.70
2009,02,24,10,14,6.70
2009,02,24,10,15,6.70
2009,02,24,10,16,6.70
2009,02,24,10,17,6.70
2009,02,24,10,18,6.70
2009,02,24,10,19,6.70
2009,02,24,10,20,6.70
2009,02,24,10,21,6.70
2009,02,24,10,22,6.70
2009,02,24,10,23,6.70
2009,02,24,10,24,6.80
2009,02,24,10,25,6.80
2009,02,24,10,26,6.80
2009,02,24,10,27,6.80
2009,02,24,10,28,6.70
2009,02,24,10,29,6.80
2009,02,24,10,30,6.80
2009,02,24,10,31,6.80
2009,02,24,10,32,6.80
2009,02,24,10,33,6.70
2009,02,24,10,34,6.70
2009,02,24,10,35,6.70
2009,02,24,10,36,6.80
2009,02,24,10,37,6.80
2009,02,24,10,38,6.80
2009,02,24,10,39,6.70
2009,02,24,10,40,6.70
2009,02,24,10,41,6.60
2009,02,24,10,42,6.60
2009,02,24,10,43,6.60
2009,02,24,10,44,6.60
2009,02,24,10,45,6.60
2009,02,24,10,46,6.60
2009,02,24,10,47,6.60
2009,02,24,10,48,6.60
2009,02,24,10,49,6.60
2009,02,24,10,50,6.60
2009,02,24,10,51,6.60
2009,02,24,10,52,6.60
2009,02,24,10,53,6.60
2009,02,24,10,54,6.60
2009,02,24,10,55,6.60
2009,02,24,10,56,6.70
2009,02,24,10,57,6.70
2009,02,24,10,58,6.70
2009,02,24,10,59,6.60
2009,02,24,11,00,6.60
2009,02,24,11,01,6.60
2009,02,24,11,02,6.70
2009,02,24,11,03,6.70
2009,02,24,11,04,6.70
2009,02,24,11,05,6.70
2009,02,24,11,06,6.70
2009,02,24,11,07,6.70
2009,02,24,11,08,6.70
2009,02,24,11,09,6.80
2009,02,24,11,10,6.80
2009,02,24,11,11,6.80
2009,02,24,11,12,6.80
2009,02,24,11,13,6.80
2009,02,24,11,14,6.80
2009,02,24,11,15,6.80
2009,02,24,11,16,6.80
2009,02,24,11,17,6.80
2009,02,24,11,18,6.80
2009,02,24,11,19,6.80
2009,02,24,11,20,6.80
2009,02,24,11,21,6.80
2009,02,24,11,22,6.80
2009,02,24,11,23,6.90
2009,02,24,11,24,6.90
2009,02,24,11,25,6.90
2009,02,24,11,26,7.00
2009,02,24,11,27,7.10
2009,02,24,11,28,7.10
2009,02,24,11,29,7.10
2009,02,24,11,30,7.10
2009,02,24,11,31,7.20
2009,02,24,11,32,7.20
2009,02,24,11,33,7.20
2009,02,24,11,34,7.20
2009,02,24,11,35,7.20
2009,02,24,11,36,7.20
2009,02,24,11,37,7.20
2009,02,24,11,38,7.20
2009,02,24,11,39,7.20
2009,02,24,11,40,7.20
2009,02,24,11,41,7.20
2009,02,24,11,42,7.20
2009,02,24,11,43,7.20
2009,02,24,11,44,7.20
2009,02,24,11,45,7.20
2009,02,24,11,46,7.20
2009,02,24,11,47,7.20
2009,02,24,11,48,7.20
2009,02,24,11,49,7.20
2009,02,24,11,50,7.20
2009,02,24,11,51,7.20
2009,02,24,11,52,7.20
2009,02,24,11,53,7.30
2009,02,24,11,54,7.30
2009,02,24,11,55,7.30
2009,02,24,11,56,7.30
2009,02,24,11,57,7.30
2009,02,24,11,58,7.30
2009,02,24,11,59,7.40
2009,02,24,12,00,7.50
2009,02,24,12,01,7.60
2009,02,24,12,02,7.60
2009,02,24,12,03,7.60
2009,02,24,12,04,7.60
2009,02,24,12,05,7.60
2009,02,24,12,06,7.60
2009,02,24,12,07,7.60
2009,02,24,12,08,7.70
2009,02,24,12,09,7.60
2009,02,24,12,10,7.70
2009,02,24,12,11,7.70
2009,02,24,12,12,7.70
2009,02,24,12,13,7.70
2009,02,24,12,14,7.80
2009,02,24,12,15,7.80
2009,02,24,12,16,7.80
2009,02,24,12,17,7.80
2009,02,24,12,18,7.90
2009,02,24,12,19,7.90
2009,02,24,12,20,7.90
2009,02,24,12,21,7.80
2009,02,24,12,22,7.80
2009,02,24,12,23,7.70
2009,02,24,12,24,7.60
2009,02,24,12,25,7.60
2009,02,24,12,26,7.60
2009,02,24,12,27,7.60
2009,02,24,12,28,7.50
2009,02,24,12,29,7.50
2009,02,24,12,30,7.40
2009,02,24,12,31,7.40
2009,02,24,12,32,7.40
2009,02,24,12,33,7.40
2009,02,24,12,34,7.40
2009,02,24,12,35,7.40
2009,02,24,12,36,7.40
2009,02,24,12,37,7.50
2009,02,24,12,38,7.60
2009,02,24,12,39,7.70
2009,02,24,12,40,7.70
2009,02,24,12,41,7.70
2009,02,24,12,42,7.80
2009,02,24,12,43,7.80
2009,02,24,12,44,7.80
2009,02,24,12,45,7.80
2009,02,24,12,46,7.90
2009,02,24,12,47,7.90
2009,02,24,12,48,7.90
2009,02,24,12,49,7.90
2009,02,24,12,50,7.90
2009,02,24,12,51,7.90
2009,02,24,12,52,7.90
2009,02,24,12,53,7.90
2009,02,24,12,54,7.90
2009,02,24,12,55,7.90
2009,02,24,12,56,7.90
2009,02,24,12,57,7.90
2009,02,24,12,58,7.90
2009,02,24,12,59,7.90
2009,02,24,13,00,7.90
2009,02,24,13,01,7.90
2009,02,24,13,02,7.80
2009,02,24,13,03,7.80
2009,02,24,13,04,7.80
2009,02,24,13,05,7.80
2009,02,24,13,06,7.80
2009,02,24,13,07,7.80
2009,02,24,13,08,7.80
2009,02,24,13,09,7.90
2009,02,24,13,10,7.90
2009,02,24,13,11,8.00
2009,02,24,13,12,8.00
2009,02,24,13,13,8.10
2009,02,24,13,14,8.00
2009,02,24,13,15,8.00
2009,02,24,13,16,8.00
2009,02,24,13,17,8.00
2009,02,24,13,18,7.90
2009,02,24,13,19,7.90
2009,02,24,13,20,7.90
2009,02,24,13,21,7.90
2009,02,24,13,22,8.00
2009,02,24,13,23,8.00
2009,02,24,13,24,8.00
2009,02,24,13,25,8.00
2009,02,24,13,26,8.00
2009,02,24,13,27,7.90
2009,02,24,13,28,7.90
2009,02,24,13,29,7.90
2009,02,24,13,30,7.90
2009,02,24,13,31,7.90
2009,02,24,13,32,7.90
2009,02,24,13,33,8.00
2009,02,24,13,34,8.00
2009,02,24,13,35,8.00
2009,02,24,13,36,8.00
2009,02,24,13,37,8.00
2009,02,24,13,38,8.10
2009,02,24,13,39,8.10
2009,02,24,13,40,8.10
2009,02,24,13,41,8.10
2009,02,24,13,42,8.10
2009,02,24,13,43,8.10
2009,02,24,13,44,8.10
2009,02,24,13,45,8.10
2009,02,24,13,46,8.20
2009,02,24,13,47,8.20
2009,02,24,13,48,8.20
2009,02,24,13,49,8.10
2009,02,24,13,50,8.10
2009,02,24,13,51,8.10
2009,02,24,13,52,8.10
2009,02,24,13,53,8.10
2009,02,24,13,54,8.10
2009,02,24,13,55,8.10
2009,02,24,13,56,8.10
2009,02,24,13,57,8.10
2009,02,24,13,58,8.10
2009,02,24,13,59,8.10
2009,02,24,14,00,8.20
2009,02,24,14,01,8.20
2009,02,24,14,02,8.30
2009,02,24,14,03,8.30
2009,02,24,14,04,8.40
2009,02,24,14,05,8.40
2009,02,24,14,06,8.40
2009,02,24,14,07,8.30
2009,02,24,14,08,8.30
2009,02,24,14,09,8.30
2009,02,24,14,10,8.30
2009,02,24,14,11,8.30
2009,02,24,14,12,8.30
2009,02,24,14,13,8.30
2009,02,24,14,14,8.30
2009,02,24,14,15,8.30
2009,02,24,14,16,8.20
2009,02,24,14,17,8.20
2009,02,24,14,18,8.10
2009,02,24,14,19,8.10
2009,02,24,14,20,8.10
2009,02,24,14,21,8.10
2009,02,24,14,22,8.10
2009,02,24,14,23,8.10
2009,02,24,14,24,8.10
2009,02,24,14,25,8.10
2009,02,24,14,26,8.10
2009,02,24,14,27,8.10
2009,02,24,14,28,8.10
2009,02,24,14,29,8.20
2009,02,24,14,30,8.20
2009,02,24,14,31,8.30
2009,02,24,14,32,8.40
2009,02,24,14,33,8.50
2009,02,24,14,34,8.60
2009,02,24,14,35,8.70
2009,02,24,14,36,8.70
2009,02,24,14,37,8.70
2009,02,24,14,38,8.70
2009,02,24,14,39,8.80
2009,02,24,14,40,8.80
2009,02,24,14,41,8.90
2009,02,24,14,42,8.90
2009,02,24,14,43,8.90
2009,02,24,14,44,8.90
2009,02,24,14,45,8.90
2009,02,24,14,46,8.80
2009,02,24,14,47,8.80
2009,02,24,14,48,8.80
2009,02,24,14,49,8.70
2009,02,24,14,50,8.70
2009,02,24,14,51,8.70
2009,02,24,14,52,8.70
2009,02,24,14,53,8.70
2009,02,24,14,54,8.60
2009,02,24,14,55,8.60
2009,02,24,14,56,8.60
2009,02,24,14,57,8.60
2009,02,24,14,58,8.50
2009,02,24,14,59,8.40
2009,02,24,15,00,8.40
2009,02,24,15,01,8.30
2009,02,24,15,02,8.30
2009,02,24,15,03,8.30
2009,02,24,15,04,8.30
2009,02,24,15,05,8.20
2009,02,24,15,06,8.20
2009,02,24,15,07,8.20
2009,02,24,15,08,8.10
2009,02,24,15,09,8.00
2009,02,24,15,10,8.00
2009,02,24,15,11,8.00
2009,02,24,15,12,7.90
2009,02,24,15,13,7.90
2009,02,24,15,14,7.90
2009,02,24,15,15,7.90
2009,02,24,15,16,7.80
2009,02,24,15,17,7.80
2009,02,24,15,18,7.80
2009,02,24,15,19,7.70
2009,02,24,15,20,7.70
2009,02,24,15,21,7.70
2009,02,24,15,22,7.70
2009,02,24,15,23,7.70
2009,02,24,15,24,7.70
2009,02,24,15,25,7.60
2009,02,24,15,26,7.60
2009,02,24,15,27,7.60
2009,02,24,15,28,7.60
2009,02,24,15,29,7.60
2009,02,24,15,30,7.50
2009,02,24,15,31,7.50
2009,02,24,15,32,7.50
2009,02,24,15,33,7.40
2009,02,24,15,34,7.40
2009,02,24,15,35,7.40
2009,02,24,15,36,7.30
2009,02,24,15,37,7.30
2009,02,24,15,38,7.30
2009,02,24,15,39,7.30
2009,02,24,15,40,7.20
2009,02,24,15,41,7.20
2009,02,24,15,42,7.20
2009,02,24,15,43,7.20
2009,02,24,15,44,7.20
2009,02,24,15,45,7.20
2009,02,24,15,46,7.20
2009,02,24,15,47,7.20
2009,02,24,15,48,7.20
2009,02,24,15,49,7.20
2009,02,24,15,50,7.20
2009,02,24,15,51,7.20
2009,02,24,15,52,7.20
2009,02,24,15,53,7.30
2009,02,24,15,54,7.30
2009,02,24,15,55,7.30
2009,02,24,15,56,7.30
2009,02,24,15,57,7.20
2009,02,24,15,58,7.20
2009,02,24,15,59,7.20
2009,02,24,16,00,7.20
2009,02,24,16,01,7.20
2009,02,24,16,02,7.20
2009,02,24,16,03,7.20
2009,02,24,16,04,7.20
2009,02,24,16,05,7.20
2009,02,24,16,06,7.20
2009,02,24,16,07,7.20
2009,02,24,16,08,7.20
2009,02,24,16,09,7.20
2009,02,24,16,10,7.20
2009,02,24,16,11,7.20
2009,02,24,16,12,7.20
2009,02,24,16,13,7.20
2009,02,24,16,14,7.20
2009,02,24,16,15,7.20
2009,02,24,16,16,7.20
2009,02,24,16,17,7.20
2009,02,24,16,18,7.20
2009,02,24,16,19,7.20
2009,02,24,16,20,7.20
2009,02,24,16,21,7.20
2009,02,24,16,22,7.20
2009,02,24,16,23,7.20
2009,02,24,16,24,7.20
2009,02,24,16,25,7.20
2009,02,24,16,26,7.20
2009,02,24,16,27,7.20
2009,02,24,16,28,7.20
2009,02,24,16,29,7.20
2009,02,24,16,30,7.20
2009,02,24,16,31,7.20
2009,02,24,16,32,7.20
2009,02,24,16,33,7.20
